User: anonymous   Login
Location: Unspecified
(0.0000°N, 0.0000°E)
Time: 23:17:37
(UTC+00:00)
Language:

STARLINK-3299 - Orbit

View from above orbital plane
View from above orbital plane
View from above satellite
View from above satellite

Ground track
Ground track

The orbit is defined by the following mean orbital elements,

1 50831U          26145.36825560 +.00000000 +00000-0 +72503-4 0 00004
2 50831  53.2127 184.9649 0001021  86.0049 274.1060 15.08841143    06
Epoch (UTC): 25 May 2026 08:50:17
Eccentricity: 0.0001021
inclination: 53.2127°
perigee height: 539 km
apogee height: 540 km
right ascension of ascending node: 184.9649°
argument of perigee: 86.0049°
revolutions per day: 15.08841143
mean anomaly at epoch: 274.1060°

The dashed part of the orbit path shows where the satellite is in the earth's shadow,  

DLR